C/2017 F1 ( Lemmon )

Japanese version
Home page
Updated on April 8, 2017

---------------------------------------------------------------------

* Profile

Discovery Date March 20, 2017
Magnitude 21.7 mag
Discoverer G. J. Leonard (Mount Lemmon)

* Orbital Elements

T 2017 Nov. 26.78810 TT                                 MPCW
q   4.5173873            (2000.0)            P               Q
                   Peri.   64.10787     -0.13517450     +0.97041697
                   Node   158.75383     +0.58907760     -0.08363092
e   1.0            Incl.  146.49273     +0.79669030     +0.22648792
From 56 observations 2017 Mar. 20-Apr. 1.

* Magnitudes Graph

        m1 = 10.5 + 5 log d + 10.0 log r

---------------------------------------------------------------------

The orbital elements are published on M.P.E.C. 2017-G06.
The magnitudes graphs are made with Comet for Windows.

---------------------------------------------------------------------

Copyright(C) Seiichi Yoshida (comet@aerith.net). All rights reserved.